START_TIME,STEP,MOV.,M6,t_acc.,M7,t_acc.,M19,t_acc.,H36,t_acc.
1979-07-18 09:00:27.030 ,0,0,0.,12.0,0.,12.0,0.,12.0,0.,12.0
1979-07-18 09:00:39.030 ,0,0,0.,12.0,0.,12.0,0.,12.0,0.,12.0
1979-07-18 09:00:51.030 ,0,1,0.,12.0,0.,12.0,0.,12.0,0.,12.0
1979-07-18 09:01:03.030 ,0,1,0.,12.0,0.,12.0,0.,12.0,0.,12.0
1979-07-18 09:01:15.030 ,0,0,0.,12.0,0.,12.0,0.,12.0,0.,12.0
1979-07-18 09:01:27.030 ,0,0,0.,12.0,0.,12.0,0.,12.0,0.,12.0
1979-07-18 09:01:39.030 ,1,1,0.,12.0,0.,12.0,0.,12.0,0.,12.0
1979-07-18 09:01:51.030 ,1,1,0.,12.0,0.,12.0,0.,12.0,0.,12.0
1979-07-18 09:02:03.030 ,1,0,0.,12.0,0.,12.0,0.,12.0,0.,12.0
1979-07-18 09:02:15.030 ,1,0,0.,12.0,0.,12.0,0.,12.0,0.,12.0
1979-07-18 09:02:27.030 ,2,1,0.,12.0,0.,12.0,0.,12.0,0.,12.0
1979-07-18 09:02:39.030 ,2,1,0.,12.0,0.,12.0,0.,12.0,0.,12.0
1979-07-18 09:02:51.030 ,2,0,0.,12.0,0.,12.0,0.,12.0,0.,12.0
1979-07-18 09:03:03.030 ,2,0,0.,12.0,0.,12.0,0.,12.0,0.,12.0
1979-07-18 09:03:15.030 ,3,1,0.,12.0,0.,12.0,0.,12.0,0.,12.0
1979-07-18 09:03:27.030 ,3,1,0.,12.0,0.,12.0,0.,12.0,0.,12.0
1979-07-18 09:03:39.030 ,3,0,0.,12.0,0.,12.0,0.,12.0,0.,12.0
1979-07-18 09:03:51.030 ,3,0,0.,12.0,0.,12.0,0.,12.0,0.,12.0
1979-07-18 09:04:03.030 ,4,1,0.,12.0,0.,12.0,0.,12.0,0.,12.0
1979-07-18 09:04:15.030 ,4,1,0.,12.0,0.,12.0,0.,12.0,0.,12.0
1979-07-18 09:04:27.030 ,4,0,0.,12.0,0.,12.0,0.,12.0,0.,12.0
1979-07-18 09:04:39.030 ,4,0,0.,12.0,0.,12.0,0.,12.0,0.,12.0
1979-07-18 09:04:51.030 ,5,1,0.,12.0,0.,12.0,0.,12.0,0.,12.0
1979-07-18 09:05:03.030 ,5,1,0.,12.0,0.,12.0,0.,12.0,0.,12.0
1979-07-18 09:05:15.030 ,5,0,0.,12.0,0.,12.0,0.,12.0,0.,12.0
1979-07-18 09:05:27.030 ,5,0,0.,12.0,0.,12.0,0.,12.0,0.,12.0
1979-07-18 09:05:39.030 ,6,1,0.,12.0,0.,12.0,0.,12.0,0.,12.0
1979-07-18 09:05:51.030 ,6,1,0.,12.0,0.,12.0,0.,12.0,0.,12.0
1979-07-18 09:06:03.030 ,6,0,0.,12.0,0.,12.0,0.,12.0,0.,12.0
1979-07-18 09:06:15.030 ,6,0,0.,12.0,0.,12.0,0.,12.0,0.,12.0
1979-07-18 09:06:27.030 ,7,0,0.,12.0,0.,12.0,0.,12.0,0.,12.0
1979-07-18 09:06:39.030 ,7,0,0.,12.0,0.,12.0,0.,12.0,0.,12.0
1979-07-18 09:06:51.030 ,7,0,0.,12.0,0.,12.0,0.,12.0,0.,12.0
1979-07-18 09:07:03.030 ,7,0,0.,12.0,0.,12.0,0.,12.0,0.,12.0
1979-07-18 09:07:15.030 ,4,1,0.,12.0,0.,12.0,0.,12.0,0.,12.0
1979-07-18 09:07:27.030 ,4,1,0.,12.0,0.,12.0,0.,12.0,0.,12.0
1979-07-18 09:07:39.030 ,0,1,0.,12.0,0.,12.0,0.,12.0,0.,12.0
1979-07-18 09:07:51.030 ,0,1,0.,12.0,0.,12.0,0.,12.0,0.,12.0
1979-07-18 09:08:03.030 ,3,1,0.,12.0,0.,12.0,0.,12.0,0.,12.0
1979-07-18 09:08:15.030 ,3,1,0.,12.0,0.,12.0,0.,12.0,0.,12.0
1979-07-18 09:08:27.030 ,7,1,0.,12.0,0.,12.0,0.,12.0,0.,12.0
1979-07-18 09:08:39.030 ,7,1,0.,12.0,0.,12.0,0.,12.0,0.,12.0
1979-07-18 09:08:51.030 ,4,1,0.,12.0,0.,12.0,0.,12.0,0.,12.0
1979-07-18 09:09:03.030 ,4,1,0.,12.0,0.,12.0,0.,12.0,0.,12.0
1979-07-18 09:09:15.030 ,0,1,0.,12.0,0.,12.0,0.,12.0,0.,12.0
1979-07-18 09:09:27.030 ,0,1,0.,12.0,0.,12.0,0.,12.0,0.,12.0
1979-07-18 09:09:39.030 ,3,1,0.,12.0,0.,12.0,0.,12.0,0.,12.0
1979-07-18 09:09:51.030 ,3,1,0.,12.0,0.,12.0,0.,12.0,0.,12.0
1979-07-18 09:10:03.030 ,7,1,0.,12.0,0.,12.0,0.,12.0,0.,12.0
1979-07-18 09:10:15.030 ,7,1,0.,12.0,0.,12.0,0.,12.0,0.,12.0
1979-07-18 09:10:27.030 ,4,1,0.,12.0,0.,12.0,0.,12.0,0.,12.0
1979-07-18 09:10:39.030 ,4,1,0.,12.0,0.,12.0,0.,12.0,0.,12.0
1979-07-18 09:10:51.030 ,0,1,0.,12.0,0.,12.0,0.,12.0,0.,12.0
1979-07-18 09:11:03.030 ,0,1,0.,12.0,0.,12.0,0.,12.0,0.,12.0
1979-07-18 09:11:15.030 ,3,1,0.,12.0,0.,12.0,0.,12.0,0.,12.0
1979-07-18 09:11:27.030 ,3,1,0.,12.0,0.,12.0,0.,12.0,0.,12.0
1979-07-18 09:11:39.030 ,7,1,0.,12.0,0.,12.0,0.,12.0,0.,12.0
1979-07-18 09:11:51.030 ,7,1,0.,12.0,0.,12.0,0.,12.0,0.,12.0
1979-07-18 09:12:03.030 ,4,1,0.,12.0,0.,12.0,0.,12.0,0.,12.0
1979-07-18 09:12:15.030 ,4,1,0.,12.0,0.,12.0,0.,12.0,0.,12.0
1979-07-18 09:12:27.030 ,0,1,0.,12.0,0.,12.0,0.,12.0,0.,12.0
1979-07-18 09:12:39.030 ,0,1,0.,12.0,0.,12.0,0.,12.0,0.,12.0
1979-07-18 09:12:51.030 ,3,1,0.,12.0,0.,12.0,0.,12.0,0.,12.0
1979-07-18 09:13:03.030 ,3,1,0.,12.0,0.,12.0,0.,12.0,0.,12.0
1979-07-18 09:13:15.030 ,7,1,0.,12.0,0.,12.0,0.,12.0,0.,12.0
1979-07-18 09:13:27.030 ,7,1,0.,12.0,0.,12.0,0.,12.0,0.,12.0
1979-07-18 09:13:39.030 ,4,1,0.,12.0,0.,12.0,0.,12.0,0.,12.0
1979-07-18 09:13:51.030 ,4,1,0.,12.0,0.,12.0,0.,12.0,0.,12.0
1979-07-18 09:14:03.030 ,0,1,0.,12.0,0.,12.0,0.,12.0,0.,12.0
1979-07-18 09:14:15.030 ,0,1,0.,12.0,0.,12.0,0.,12.0,0.,12.0
1979-07-18 09:14:27.030 ,3,1,0.,12.0,0.,12.0,0.,12.0,0.,12.0
1979-07-18 09:14:39.030 ,3,1,0.,12.0,0.,12.0,0.,12.0,0.,12.0
1979-07-18 09:14:51.030 ,7,1,0.,12.0,0.,12.0,0.,12.0,0.,12.0
1979-07-18 09:15:03.030 ,7,1,0.,12.0,0.,12.0,0.,12.0,0.,12.0
1979-07-18 09:15:15.030 ,4,1,0.,12.0,0.,12.0,0.,12.0,0.,12.0
1979-07-18 09:15:27.030 ,4,1,0.,12.0,0.,12.0,0.,12.0,0.,12.0
1979-07-18 09:15:39.030 ,0,1,0.,12.0,0.,12.0,0.,12.0,0.,12.0
1979-07-18 09:15:51.030 ,0,1,1.,12.0,0.,12.0,0.,12.0,0.,12.0
1979-07-18 09:16:03.030 ,3,1,0.,12.0,0.,12.0,0.,12.0,0.,12.0
1979-07-18 09:16:15.030 ,3,1,0.,12.0,0.,12.0,0.,12.0,0.,12.0
1979-07-18 09:16:27.030 ,7,1,0.,12.0,0.,12.0,0.,12.0,0.,12.0
1979-07-18 09:16:39.030 ,7,1,0.,12.0,0.,12.0,0.,12.0,0.,12.0
1979-07-18 09:16:51.030 ,4,1,0.,12.0,0.,12.0,0.,12.0,0.,12.0
1979-07-18 09:17:03.030 ,4,1,0.,12.0,0.,12.0,0.,12.0,0.,12.0
1979-07-18 09:17:15.030 ,0,1,0.,12.0,0.,12.0,0.,12.0,0.,12.0
1979-07-18 09:17:27.030 ,0,1,0.,12.0,0.,12.0,0.,12.0,0.,12.0
1979-07-18 09:17:39.030 ,0,0,0.,12.0,0.,12.0,0.,12.0,0.,12.0
1979-07-18 09:17:51.030 ,0,0,0.,12.0,0.,12.0,0.,12.0,0.,12.0
1979-07-18 09:18:03.030 ,0,0,0.,12.0,0.,12.0,0.,12.0,0.,12.0
1979-07-18 09:18:15.030 ,0,0,0.,12.0,0.,12.0,0.,12.0,0.,12.0
1979-07-18 09:18:27.030 ,5,1,0.,12.0,0.,12.0,0.,12.0,0.,12.0
1979-07-18 09:18:39.030 ,5,1,0.,12.0,0.,12.0,0.,12.0,0.,12.0
1979-07-18 09:18:51.030 ,5,0,0.,12.0,0.,12.0,0.,12.0,0.,12.0
1979-07-18 09:19:03.030 ,5,0,0.,12.0,0.,12.0,0.,12.0,0.,12.0
1979-07-18 09:19:15.030 ,4,1,0.,12.0,0.,12.0,0.,12.0,0.,12.0
1979-07-18 09:19:27.030 ,4,1,0.,12.0,0.,12.0,0.,12.0,0.,12.0
1979-07-18 09:19:39.030 ,4,0,0.,12.0,0.,12.0,0.,12.0,0.,12.0
1979-07-18 09:19:51.030 ,4,0,0.,12.0,0.,12.0,0.,12.0,0.,12.0
1979-07-18 09:20:03.030 ,3,1,0.,12.0,0.,12.0,0.,12.0,0.,12.0
1979-07-18 09:20:15.030 ,3,1,0.,12.0,0.,12.0,0.,12.0,0.,12.0
1979-07-18 09:20:27.030 ,3,0,0.,12.0,0.,12.0,0.,12.0,0.,12.0
1979-07-18 09:20:39.030 ,3,0,0.,12.0,0.,12.0,0.,12.0,0.,12.0
1979-07-18 09:20:51.030 ,2,1,0.,12.0,0.,12.0,0.,12.0,0.,12.0
1979-07-18 09:21:03.030 ,2,1,0.,12.0,0.,12.0,0.,12.0,0.,12.0
1979-07-18 09:21:15.030 ,2,0,0.,12.0,0.,12.0,0.,12.0,0.,12.0
1979-07-18 09:21:27.030 ,2,0,0.,12.0,0.,12.0,0.,12.0,0.,12.0
1979-07-18 09:21:39.030 ,1,1,0.,12.0,0.,12.0,0.,12.0,0.,12.0
1979-07-18 09:21:51.030 ,1,1,0.,12.0,0.,12.0,0.,12.0,0.,12.0
1979-07-18 09:22:03.030 ,1,0,0.,12.0,0.,12.0,0.,12.0,0.,12.0
1979-07-18 09:22:15.030 ,1,0,0.,12.0,0.,12.0,0.,12.0,0.,12.0
1979-07-18 09:22:27.030 ,0,1,0.,12.0,0.,12.0,0.,12.0,0.,12.0
1979-07-18 09:22:39.030 ,0,1,0.,12.0,0.,12.0,0.,12.0,0.,12.0
1979-07-18 09:22:51.030 ,0,0,0.,12.0,0.,12.0,0.,12.0,0.,12.0
1979-07-18 09:23:03.030 ,0,0,0.,12.0,0.,12.0,0.,12.0,0.,12.0
1979-07-18 09:23:15.030 ,0,1,0.,12.0,0.,12.0,0.,12.0,0.,12.0
1979-07-18 09:23:27.030 ,0,1,0.,12.0,0.,12.0,0.,12.0,0.,12.0
1979-07-18 09:23:39.030 ,0,0,0.,12.0,0.,12.0,0.,12.0,0.,12.0
1979-07-18 09:23:51.030 ,0,0,0.,12.0,0.,12.0,0.,12.0,0.,12.0
1979-07-18 09:24:03.030 ,1,1,0.,12.0,0.,12.0,0.,12.0,0.,12.0
1979-07-18 09:24:15.030 ,1,1,0.,12.0,0.,12.0,0.,12.0,0.,12.0
1979-07-18 09:24:27.030 ,1,0,0.,12.0,0.,12.0,0.,12.0,0.,12.0
1979-07-18 09:24:39.030 ,1,0,0.,12.0,0.,12.0,0.,12.0,0.,12.0
1979-07-18 09:24:51.030 ,2,1,0.,12.0,0.,12.0,0.,12.0,0.,12.0
1979-07-18 09:25:03.030 ,2,1,0.,12.0,0.,12.0,0.,12.0,0.,12.0
1979-07-18 09:25:15.030 ,2,0,0.,12.0,0.,12.0,0.,12.0,0.,12.0
1979-07-18 09:25:27.030 ,2,0,0.,12.0,0.,12.0,0.,12.0,0.,12.0
1979-07-18 09:25:39.030 ,3,1,0.,12.0,0.,12.0,0.,12.0,0.,12.0
1979-07-18 09:25:51.030 ,3,1,0.,12.0,0.,12.0,0.,12.0,0.,12.0
1979-07-18 09:26:03.030 ,3,0,0.,12.0,0.,12.0,0.,12.0,0.,12.0
1979-07-18 09:26:15.030 ,3,0,0.,12.0,0.,12.0,0.,12.0,0.,12.0
1979-07-18 09:26:27.030 ,4,1,0.,12.0,0.,12.0,0.,12.0,0.,12.0
1979-07-18 09:26:39.030 ,4,1,0.,12.0,0.,12.0,0.,12.0,0.,12.0
1979-07-18 09:26:51.030 ,4,0,0.,12.0,0.,12.0,0.,12.0,0.,12.0
1979-07-18 09:27:03.030 ,4,0,0.,12.0,0.,12.0,0.,12.0,0.,12.0
1979-07-18 09:27:15.030 ,5,1,0.,12.0,0.,12.0,0.,12.0,0.,12.0
1979-07-18 09:27:27.030 ,5,1,0.,12.0,0.,12.0,0.,12.0,0.,12.0
1979-07-18 09:27:39.030 ,5,0,0.,12.0,0.,12.0,0.,12.0,0.,12.0
1979-07-18 09:27:51.030 ,5,0,0.,12.0,0.,12.0,0.,12.0,0.,12.0
1979-07-18 09:28:03.030 ,6,1,0.,12.0,0.,12.0,0.,12.0,0.,12.0
1979-07-18 09:28:15.030 ,6,1,0.,12.0,0.,12.0,0.,12.0,0.,12.0
1979-07-18 09:28:27.030 ,6,0,0.,12.0,0.,12.0,0.,12.0,0.,12.0
1979-07-18 09:28:39.030 ,6,0,0.,12.0,0.,12.0,0.,12.0,0.,12.0
1979-07-18 09:28:51.030 ,7,1,0.,12.0,0.,12.0,0.,12.0,0.,12.0
1979-07-18 09:29:03.030 ,7,1,0.,12.0,0.,12.0,0.,12.0,0.,12.0
1979-07-18 09:29:15.030 ,7,0,0.,12.0,0.,12.0,0.,12.0,0.,12.0
1979-07-18 09:29:27.030 ,7,0,0.,12.0,0.,12.0,0.,12.0,0.,12.0
1979-07-18 09:29:39.030 ,7,1,0.,12.0,0.,12.0,0.,12.0,0.,12.0
1979-07-18 09:29:51.030 ,7,1,0.,12.0,0.,12.0,0.,12.0,0.,12.0
1979-07-18 09:30:03.030 ,7,0,0.,12.0,0.,12.0,0.,12.0,0.,12.0
1979-07-18 09:30:15.030 ,7,0,0.,12.0,0.,12.0,0.,12.0,0.,12.0
1979-07-18 09:30:27.030 ,6,1,0.,12.0,0.,12.0,0.,12.0,0.,12.0
1979-07-18 09:30:39.030 ,6,1,0.,12.0,0.,12.0,0.,12.0,0.,12.0
1979-07-18 09:30:51.030 ,6,0,0.,12.0,0.,12.0,0.,12.0,0.,12.0
1979-07-18 09:31:03.030 ,6,0,0.,12.0,0.,12.0,0.,12.0,0.,12.0
1979-07-18 09:31:15.030 ,5,1,0.,12.0,0.,12.0,0.,12.0,0.,12.0
1979-07-18 09:31:27.030 ,5,1,0.,12.0,0.,12.0,0.,12.0,0.,12.0
1979-07-18 09:31:39.030 ,5,0,0.,12.0,0.,12.0,0.,12.0,0.,12.0
1979-07-18 09:31:51.030 ,5,0,0.,12.0,0.,12.0,0.,12.0,0.,12.0
1979-07-18 09:32:03.030 ,4,1,0.,12.0,0.,12.0,0.,12.0,0.,12.0
1979-07-18 09:32:15.030 ,4,1,0.,12.0,0.,12.0,0.,12.0,0.,12.0
1979-07-18 09:32:27.030 ,4,0,0.,12.0,0.,12.0,0.,12.0,0.,12.0
1979-07-18 09:32:39.030 ,4,0,0.,12.0,0.,12.0,0.,12.0,0.,12.0
1979-07-18 09:32:51.030 ,3,1,0.,12.0,0.,12.0,0.,12.0,0.,12.0
1979-07-18 09:33:03.030 ,3,1,0.,12.0,0.,12.0,0.,12.0,0.,12.0
1979-07-18 09:33:15.030 ,3,0,0.,12.0,0.,12.0,0.,12.0,0.,12.0
1979-07-18 09:33:27.030 ,3,0,0.,12.0,0.,12.0,0.,12.0,0.,12.0
1979-07-18 09:33:39.030 ,2,1,0.,12.0,0.,12.0,0.,12.0,0.,12.0
1979-07-18 09:33:51.030 ,2,1,0.,12.0,0.,12.0,0.,12.0,0.,12.0
1979-07-18 09:34:03.030 ,2,0,0.,12.0,0.,12.0,0.,12.0,0.,12.0
1979-07-18 09:34:15.030 ,2,0,0.,12.0,0.,12.0,0.,12.0,0.,12.0
1979-07-18 09:34:27.030 ,1,1,0.,12.0,0.,12.0,0.,12.0,0.,12.0
1979-07-18 09:34:39.030 ,1,1,0.,12.0,0.,12.0,0.,12.0,0.,12.0
1979-07-18 09:34:51.030 ,1,0,0.,12.0,0.,12.0,0.,12.0,0.,12.0
1979-07-18 09:35:03.030 ,1,0,0.,12.0,0.,12.0,0.,12.0,0.,12.0
1979-07-18 09:35:15.030 ,0,1,0.,12.0,0.,12.0,0.,12.0,0.,12.0
1979-07-18 09:35:27.030 ,0,1,0.,12.0,0.,12.0,0.,12.0,0.,12.0
1979-07-18 09:35:39.030 ,0,0,0.,12.0,0.,12.0,0.,12.0,0.,12.0
1979-07-18 09:35:51.030 ,0,0,0.,12.0,0.,12.0,0.,12.0,0.,12.0
1979-07-18 09:36:03.030 ,0,1,0.,12.0,0.,12.0,0.,12.0,0.,12.0
1979-07-18 09:36:15.030 ,0,1,0.,12.0,0.,12.0,0.,12.0,0.,12.0
1979-07-18 09:36:27.030 ,0,0,0.,12.0,0.,12.0,0.,12.0,0.,12.0
1979-07-18 09:36:39.030 ,0,0,0.,12.0,0.,12.0,0.,12.0,0.,12.0
1979-07-18 09:36:51.030 ,1,1,0.,12.0,0.,12.0,0.,12.0,0.,12.0
1979-07-18 09:37:03.030 ,1,1,0.,12.0,0.,12.0,0.,12.0,0.,12.0
1979-07-18 09:37:15.030 ,1,0,0.,12.0,0.,12.0,0.,12.0,0.,12.0
1979-07-18 09:37:27.030 ,1,0,0.,12.0,0.,12.0,0.,12.0,0.,12.0
1979-07-18 09:37:39.030 ,2,1,0.,12.0,0.,12.0,0.,12.0,0.,12.0
1979-07-18 09:37:51.030 ,2,1,0.,12.0,0.,12.0,0.,12.0,0.,12.0
1979-07-18 09:38:03.030 ,2,0,0.,12.0,0.,12.0,0.,12.0,0.,12.0
1979-07-18 09:38:15.030 ,2,0,0.,12.0,0.,12.0,0.,12.0,0.,12.0
1979-07-18 09:38:27.030 ,3,1,0.,12.0,0.,12.0,0.,12.0,0.,12.0
1979-07-18 09:38:39.030 ,3,1,0.,12.0,0.,12.0,0.,12.0,0.,12.0
1979-07-18 09:38:51.030 ,3,0,0.,12.0,0.,12.0,0.,12.0,0.,12.0
1979-07-18 09:39:03.030 ,3,0,0.,12.0,0.,12.0,0.,12.0,0.,12.0
1979-07-18 09:39:15.030 ,4,1,0.,12.0,0.,12.0,0.,12.0,0.,12.0
1979-07-18 09:39:27.030 ,4,1,0.,12.0,0.,12.0,0.,12.0,0.,12.0
1979-07-18 09:39:39.030 ,4,0,0.,12.0,0.,12.0,0.,12.0,0.,12.0
1979-07-18 09:39:51.030 ,4,0,0.,12.0,0.,12.0,0.,12.0,0.,12.0
1979-07-18 09:40:03.030 ,5,1,0.,12.0,0.,12.0,0.,12.0,0.,12.0
1979-07-18 09:40:15.030 ,5,1,0.,12.0,0.,12.0,0.,12.0,0.,12.0
1979-07-18 09:40:27.030 ,5,0,0.,12.0,0.,12.0,0.,12.0,0.,12.0
1979-07-18 09:40:39.030 ,5,0,0.,12.0,0.,12.0,0.,12.0,0.,12.0
1979-07-18 09:40:51.030 ,6,1,0.,12.0,0.,12.0,0.,12.0,0.,12.0
1979-07-18 09:41:03.030 ,6,1,0.,12.0,0.,12.0,0.,12.0,0.,12.0
1979-07-18 09:41:15.030 ,6,0,0.,12.0,0.,12.0,0.,12.0,0.,12.0
1979-07-18 09:41:27.030 ,6,0,0.,12.0,0.,12.0,0.,12.0,0.,12.0
1979-07-18 09:41:39.030 ,7,1,0.,12.0,0.,12.0,0.,12.0,0.,12.0
1979-07-18 09:41:51.030 ,7,1,0.,12.0,0.,12.0,0.,12.0,0.,12.0
1979-07-18 09:42:03.030 ,7,0,0.,12.0,0.,12.0,0.,12.0,0.,12.0
1979-07-18 09:42:15.030 ,7,0,0.,12.0,0.,12.0,0.,12.0,0.,12.0
1979-07-18 09:42:27.030 ,7,1,0.,12.0,0.,12.0,0.,12.0,0.,12.0
1979-07-18 09:42:39.030 ,7,1,0.,12.0,0.,12.0,0.,12.0,0.,12.0
1979-07-18 09:42:51.030 ,7,0,0.,12.0,0.,12.0,0.,12.0,0.,12.0
1979-07-18 09:43:03.030 ,7,0,0.,12.0,0.,12.0,0.,12.0,0.,12.0
1979-07-18 09:43:15.030 ,6,1,0.,12.0,0.,12.0,0.,12.0,0.,12.0
1979-07-18 09:43:27.030 ,6,1,0.,12.0,0.,12.0,0.,12.0,0.,12.0
1979-07-18 09:43:39.030 ,6,0,0.,12.0,0.,12.0,0.,12.0,0.,12.0
1979-07-18 09:43:51.030 ,6,0,0.,12.0,0.,12.0,0.,12.0,0.,12.0
1979-07-18 09:44:03.030 ,5,1,0.,12.0,0.,12.0,0.,12.0,0.,12.0
1979-07-18 09:44:15.030 ,5,1,0.,12.0,0.,12.0,0.,12.0,0.,12.0
1979-07-18 09:44:27.030 ,5,0,0.,12.0,0.,12.0,0.,12.0,0.,12.0
1979-07-18 09:44:39.030 ,5,0,0.,12.0,0.,12.0,0.,12.0,0.,12.0
1979-07-18 09:44:51.030 ,4,1,0.,12.0,0.,12.0,0.,12.0,0.,12.0
1979-07-18 09:45:03.030 ,4,1,0.,12.0,0.,12.0,0.,12.0,0.,12.0
1979-07-18 09:45:15.030 ,4,0,0.,12.0,0.,12.0,0.,12.0,0.,12.0
1979-07-18 09:45:27.030 ,4,0,0.,12.0,0.,12.0,0.,12.0,0.,12.0
1979-07-18 09:45:39.030 ,3,1,0.,12.0,0.,12.0,0.,12.0,0.,12.0
1979-07-18 09:45:51.030 ,3,1,0.,12.0,0.,12.0,0.,12.0,0.,12.0
1979-07-18 09:46:03.030 ,3,0,0.,12.0,0.,12.0,0.,12.0,0.,12.0
1979-07-18 09:46:15.030 ,3,0,0.,12.0,0.,12.0,0.,12.0,0.,12.0
1979-07-18 09:46:27.030 ,2,1,0.,12.0,0.,12.0,0.,12.0,0.,12.0
1979-07-18 09:46:39.030 ,2,1,0.,12.0,0.,12.0,0.,12.0,0.,12.0
1979-07-18 09:46:51.030 ,2,0,0.,12.0,0.,12.0,0.,12.0,0.,12.0
1979-07-18 09:47:03.030 ,2,0,0.,12.0,0.,12.0,0.,12.0,0.,12.0
1979-07-18 09:47:15.030 ,1,1,0.,12.0,0.,12.0,0.,12.0,0.,12.0
1979-07-18 09:47:27.030 ,1,1,0.,12.0,0.,12.0,0.,12.0,0.,12.0
1979-07-18 09:47:39.030 ,1,0,0.,12.0,0.,12.0,0.,12.0,0.,12.0
1979-07-18 09:47:51.030 ,1,0,0.,12.0,0.,12.0,0.,12.0,0.,12.0
1979-07-18 09:48:03.030 ,0,1,0.,12.0,0.,12.0,0.,12.0,0.,12.0
1979-07-18 09:48:15.030 ,0,1,0.,12.0,0.,12.0,0.,12.0,0.,12.0
1979-07-18 09:48:27.030 ,0,0,0.,12.0,0.,12.0,0.,12.0,0.,12.0
1979-07-18 09:48:39.030 ,0,0,0.,12.0,0.,12.0,0.,12.0,0.,12.0
1979-07-18 09:48:51.030 ,0,1,0.,12.0,0.,12.0,0.,12.0,0.,12.0
1979-07-18 09:49:03.030 ,0,1,0.,12.0,0.,12.0,0.,12.0,0.,12.0
1979-07-18 09:49:15.030 ,0,0,0.,12.0,0.,12.0,0.,12.0,0.,12.0
1979-07-18 09:49:27.030 ,0,0,0.,12.0,0.,12.0,0.,12.0,0.,12.0
1979-07-18 09:49:39.030 ,1,1,0.,12.0,0.,12.0,0.,12.0,0.,12.0
1979-07-18 09:49:51.030 ,1,1,0.,12.0,0.,12.0,0.,12.0,0.,12.0
1979-07-18 09:50:03.030 ,1,0,0.,12.0,0.,12.0,0.,12.0,0.,12.0
1979-07-18 09:50:15.030 ,1,0,0.,12.0,0.,12.0,0.,12.0,0.,12.0
1979-07-18 09:50:27.030 ,2,1,0.,12.0,0.,12.0,0.,12.0,0.,12.0
1979-07-18 09:50:39.030 ,2,1,0.,12.0,0.,12.0,0.,12.0,0.,12.0
1979-07-18 09:50:51.030 ,2,0,0.,12.0,0.,12.0,0.,12.0,0.,12.0
1979-07-18 09:51:03.030 ,2,0,0.,12.0,0.,12.0,0.,12.0,0.,12.0
1979-07-18 09:51:15.030 ,3,1,0.,12.0,0.,12.0,0.,12.0,0.,12.0
1979-07-18 09:51:27.030 ,3,1,0.,12.0,0.,12.0,0.,12.0,0.,12.0
1979-07-18 09:51:39.030 ,3,0,0.,12.0,0.,12.0,0.,12.0,0.,12.0
1979-07-18 09:51:51.030 ,3,0,0.,12.0,0.,12.0,0.,12.0,0.,12.0
1979-07-18 09:52:03.030 ,4,1,0.,12.0,0.,12.0,0.,12.0,0.,12.0
1979-07-18 09:52:15.030 ,4,1,0.,12.0,0.,12.0,0.,12.0,0.,12.0
1979-07-18 09:52:27.030 ,4,0,0.,12.0,0.,12.0,0.,12.0,0.,12.0
1979-07-18 09:52:39.030 ,4,0,0.,12.0,0.,12.0,0.,12.0,0.,12.0
1979-07-18 09:52:51.030 ,5,1,0.,12.0,0.,12.0,0.,12.0,0.,12.0
1979-07-18 09:53:03.030 ,5,1,0.,12.0,0.,12.0,0.,12.0,0.,12.0
1979-07-18 09:53:15.030 ,5,0,0.,12.0,0.,12.0,0.,12.0,0.,12.0
1979-07-18 09:53:27.030 ,5,0,0.,12.0,0.,12.0,0.,12.0,0.,12.0
1979-07-18 09:53:39.030 ,6,1,0.,12.0,0.,12.0,0.,12.0,0.,12.0
1979-07-18 09:53:51.030 ,6,1,0.,12.0,0.,12.0,0.,12.0,0.,12.0
1979-07-18 09:54:03.030 ,6,0,0.,12.0,0.,12.0,0.,12.0,0.,12.0
1979-07-18 09:54:15.030 ,6,0,0.,12.0,0.,12.0,0.,12.0,0.,12.0
1979-07-18 09:54:27.030 ,7,0,1.,12.0,0.,12.0,0.,12.0,0.,12.0
1979-07-18 09:54:39.030 ,7,0,0.,12.0,0.,12.0,0.,12.0,0.,12.0
1979-07-18 09:54:51.030 ,7,0,0.,12.0,0.,12.0,0.,12.0,0.,12.0
1979-07-18 09:55:03.030 ,7,0,0.,12.0,0.,12.0,0.,12.0,0.,12.0
1979-07-18 09:55:15.030 ,4,1,0.,12.0,0.,12.0,0.,12.0,0.,12.0
1979-07-18 09:55:27.030 ,4,1,0.,12.0,0.,12.0,0.,12.0,0.,12.0
1979-07-18 09:55:39.030 ,0,1,0.,12.0,0.,12.0,0.,12.0,0.,12.0
1979-07-18 09:55:51.030 ,0,1,0.,12.0,0.,12.0,0.,12.0,0.,12.0
1979-07-18 09:56:03.030 ,3,1,0.,12.0,0.,12.0,0.,12.0,0.,12.0
1979-07-18 09:56:15.030 ,3,1,0.,12.0,0.,12.0,0.,12.0,0.,12.0
1979-07-18 09:56:27.030 ,7,1,0.,12.0,0.,12.0,0.,12.0,0.,12.0
1979-07-18 09:56:39.030 ,7,1,0.,12.0,0.,12.0,0.,12.0,0.,12.0
1979-07-18 09:56:51.030 ,4,1,0.,12.0,0.,12.0,0.,12.0,0.,12.0
1979-07-18 09:57:03.030 ,4,1,0.,12.0,0.,12.0,0.,12.0,0.,12.0
1979-07-18 09:57:15.030 ,0,1,0.,12.0,0.,12.0,0.,12.0,0.,12.0
1979-07-18 09:57:27.030 ,0,1,0.,12.0,0.,12.0,0.,12.0,0.,12.0
1979-07-18 09:57:39.030 ,3,1,0.,12.0,0.,12.0,0.,12.0,0.,12.0
1979-07-18 09:57:51.030 ,3,1,0.,12.0,0.,12.0,0.,12.0,0.,12.0
1979-07-18 09:58:03.030 ,7,1,0.,12.0,0.,12.0,0.,12.0,0.,12.0
1979-07-18 09:58:15.030 ,7,1,0.,12.0,0.,12.0,0.,12.0,0.,12.0
1979-07-18 09:58:27.030 ,4,1,0.,12.0,0.,12.0,0.,12.0,0.,12.0
1979-07-18 09:58:39.030 ,4,1,0.,12.0,0.,12.0,0.,12.0,0.,12.0
1979-07-18 09:58:51.030 ,0,1,0.,12.0,0.,12.0,0.,12.0,0.,12.0
1979-07-18 09:59:03.030 ,0,1,0.,12.0,0.,12.0,0.,12.0,0.,12.0
1979-07-18 09:59:15.030 ,3,1,0.,12.0,0.,12.0,0.,12.0,0.,12.0
1979-07-18 09:59:27.030 ,3,1,0.,12.0,0.,12.0,0.,12.0,0.,12.0
1979-07-18 09:59:39.030 ,7,1,0.,12.0,0.,12.0,0.,12.0,0.,12.0
1979-07-18 09:59:51.030 ,7,1,0.,12.0,0.,12.0,0.,12.0,0.,12.0
1979-07-18 10:00:03.030 ,4,1,0.,12.0,0.,12.0,0.,12.0,0.,12.0
1979-07-18 10:00:15.030 ,4,1,0.,12.0,0.,12.0,0.,12.0,0.,12.0
1979-07-18 10:00:27.030 ,0,1,0.,12.0,0.,12.0,0.,12.0,0.,12.0
1979-07-18 10:00:39.030 ,0,1,0.,12.0,0.,12.0,0.,12.0,0.,12.0
1979-07-18 10:00:51.030 ,3,1,0.,12.0,0.,12.0,0.,12.0,0.,12.0
1979-07-18 10:01:03.030 ,3,1,0.,12.0,0.,12.0,0.,12.0,0.,12.0
1979-07-18 10:01:15.030 ,7,1,0.,12.0,0.,12.0,0.,12.0,0.,12.0
1979-07-18 10:01:27.030 ,7,1,0.,12.0,0.,12.0,0.,12.0,0.,12.0
1979-07-18 10:01:39.030 ,4,1,0.,12.0,0.,12.0,0.,12.0,0.,12.0
1979-07-18 10:01:51.030 ,4,1,0.,12.0,0.,12.0,0.,12.0,0.,12.0
1979-07-18 10:02:03.030 ,0,1,0.,12.0,0.,12.0,0.,12.0,0.,12.0
1979-07-18 10:02:15.030 ,0,1,0.,12.0,0.,12.0,0.,12.0,0.,12.0
1979-07-18 10:02:27.030 ,3,1,0.,12.0,0.,12.0,0.,12.0,0.,12.0
1979-07-18 10:02:39.030 ,3,1,0.,12.0,0.,12.0,0.,12.0,0.,12.0
1979-07-18 10:02:51.030 ,7,1,0.,12.0,0.,12.0,0.,12.0,0.,12.0
1979-07-18 10:03:03.030 ,7,1,0.,12.0,0.,12.0,0.,12.0,0.,12.0
1979-07-18 10:03:15.030 ,4,1,0.,12.0,0.,12.0,0.,12.0,0.,12.0
1979-07-18 10:03:27.030 ,4,1,0.,12.0,0.,12.0,0.,12.0,0.,12.0
1979-07-18 10:03:39.030 ,0,1,0.,12.0,0.,12.0,0.,12.0,0.,12.0
1979-07-18 10:03:51.030 ,0,1,0.,12.0,0.,12.0,0.,12.0,0.,12.0
1979-07-18 10:04:03.030 ,3,1,0.,12.0,0.,12.0,0.,12.0,0.,12.0
1979-07-18 10:04:15.030 ,3,1,0.,12.0,0.,12.0,0.,12.0,0.,12.0
1979-07-18 10:04:27.030 ,7,1,0.,12.0,0.,12.0,0.,12.0,0.,12.0
1979-07-18 10:04:39.030 ,7,1,0.,12.0,0.,12.0,0.,12.0,0.,12.0
1979-07-18 10:04:51.030 ,4,1,0.,12.0,0.,12.0,0.,12.0,0.,12.0
1979-07-18 10:05:03.030 ,4,1,0.,12.0,0.,12.0,0.,12.0,0.,12.0
1979-07-18 10:05:15.030 ,0,1,0.,12.0,0.,12.0,0.,12.0,0.,12.0
1979-07-18 10:05:27.030 ,0,1,0.,12.0,0.,12.0,0.,12.0,0.,12.0
1979-07-18 10:05:39.030 ,0,0,0.,12.0,0.,12.0,0.,12.0,0.,12.0
1979-07-18 10:05:51.030 ,0,0,0.,12.0,0.,12.0,0.,12.0,0.,12.0
1979-07-18 10:06:03.030 ,0,0,0.,12.0,0.,12.0,0.,12.0,0.,12.0
1979-07-18 10:06:15.030 ,0,0,0.,12.0,0.,12.0,0.,12.0,0.,12.0
1979-07-18 10:06:27.030 ,5,1,0.,12.0,0.,12.0,0.,12.0,0.,12.0
1979-07-18 10:06:39.030 ,5,1,0.,12.0,0.,12.0,0.,12.0,0.,12.0
1979-07-18 10:06:51.030 ,5,0,0.,12.0,0.,12.0,0.,12.0,0.,12.0
1979-07-18 10:07:03.030 ,5,0,0.,12.0,0.,12.0,0.,12.0,0.,12.0
1979-07-18 10:07:15.030 ,4,1,0.,12.0,0.,12.0,0.,12.0,0.,12.0
1979-07-18 10:07:27.030 ,4,1,0.,12.0,0.,12.0,0.,12.0,0.,12.0
1979-07-18 10:07:39.030 ,4,0,0.,12.0,0.,12.0,0.,12.0,0.,12.0
1979-07-18 10:07:51.030 ,4,0,0.,12.0,0.,12.0,0.,12.0,0.,12.0
1979-07-18 10:08:03.030 ,3,1,0.,12.0,0.,12.0,0.,12.0,0.,12.0
1979-07-18 10:08:15.030 ,3,1,0.,12.0,0.,12.0,0.,12.0,0.,12.0
1979-07-18 10:08:27.030 ,3,0,0.,12.0,0.,12.0,0.,12.0,0.,12.0
1979-07-18 10:08:39.030 ,3,0,0.,12.0,0.,12.0,0.,12.0,0.,12.0
1979-07-18 10:08:51.030 ,2,1,0.,12.0,0.,12.0,0.,12.0,0.,12.0
1979-07-18 10:09:03.030 ,2,1,0.,12.0,0.,12.0,0.,12.0,0.,12.0
1979-07-18 10:09:15.030 ,2,0,0.,12.0,0.,12.0,0.,12.0,0.,12.0
1979-07-18 10:09:27.030 ,2,0,0.,12.0,0.,12.0,0.,12.0,0.,12.0
1979-07-18 10:09:39.030 ,1,1,0.,12.0,0.,12.0,0.,12.0,0.,12.0
1979-07-18 10:09:51.030 ,1,1,0.,12.0,0.,12.0,0.,12.0,0.,12.0
1979-07-18 10:10:03.030 ,1,0,0.,12.0,0.,12.0,0.,12.0,0.,12.0
1979-07-18 10:10:15.030 ,1,0,0.,12.0,0.,12.0,0.,12.0,0.,12.0
1979-07-18 10:10:27.030 ,0,1,0.,12.0,0.,12.0,0.,12.0,0.,12.0
1979-07-18 10:10:39.030 ,0,1,0.,12.0,0.,12.0,0.,12.0,0.,12.0
1979-07-18 10:10:51.030 ,0,0,0.,12.0,0.,12.0,0.,12.0,0.,12.0
1979-07-18 10:11:03.030 ,0,0,0.,12.0,0.,12.0,0.,12.0,0.,12.0
1979-07-18 10:11:15.030 ,0,1,0.,12.0,0.,12.0,0.,12.0,0.,12.0
1979-07-18 10:11:27.030 ,0,1,0.,12.0,0.,12.0,0.,12.0,0.,12.0
1979-07-18 10:11:39.030 ,0,0,0.,12.0,0.,12.0,0.,12.0,0.,12.0
1979-07-18 10:11:51.030 ,0,0,0.,12.0,0.,12.0,0.,12.0,0.,12.0
1979-07-18 10:12:03.030 ,1,1,0.,12.0,0.,12.0,0.,12.0,0.,12.0
1979-07-18 10:12:15.030 ,1,1,0.,12.0,0.,12.0,0.,12.0,0.,12.0
1979-07-18 10:12:27.030 ,1,0,0.,12.0,0.,12.0,0.,12.0,0.,12.0
1979-07-18 10:12:39.030 ,1,0,0.,12.0,0.,12.0,0.,12.0,0.,12.0
1979-07-18 10:12:51.030 ,2,1,0.,12.0,0.,12.0,0.,12.0,0.,12.0
1979-07-18 10:13:03.030 ,2,1,0.,12.0,0.,12.0,0.,12.0,0.,12.0
1979-07-18 10:13:15.030 ,2,0,0.,12.0,0.,12.0,0.,12.0,0.,12.0
1979-07-18 10:13:27.030 ,2,0,0.,12.0,0.,12.0,0.,12.0,0.,12.0
1979-07-18 10:13:39.030 ,3,1,0.,12.0,0.,12.0,0.,12.0,0.,12.0
1979-07-18 10:13:51.030 ,3,1,0.,12.0,0.,12.0,0.,12.0,0.,12.0
1979-07-18 10:14:03.030 ,3,0,0.,12.0,0.,12.0,0.,12.0,0.,12.0
1979-07-18 10:14:15.030 ,3,0,0.,12.0,0.,12.0,0.,12.0,0.,12.0
1979-07-18 10:14:27.030 ,4,1,0.,12.0,0.,12.0,0.,12.0,0.,12.0
1979-07-18 10:14:39.030 ,4,1,0.,12.0,0.,12.0,0.,12.0,0.,12.0
1979-07-18 10:14:51.030 ,4,0,0.,12.0,0.,12.0,0.,12.0,0.,12.0
1979-07-18 10:15:03.030 ,4,0,0.,12.0,0.,12.0,0.,12.0,0.,12.0
1979-07-18 10:15:15.030 ,5,1,0.,12.0,0.,12.0,0.,12.0,0.,12.0
1979-07-18 10:15:27.030 ,5,1,0.,12.0,0.,12.0,0.,12.0,0.,12.0
1979-07-18 10:15:39.030 ,5,0,0.,12.0,0.,12.0,0.,12.0,0.,12.0
1979-07-18 10:15:51.030 ,5,0,1.,12.0,0.,12.0,0.,12.0,0.,12.0
1979-07-18 10:16:03.030 ,6,1,0.,12.0,0.,12.0,0.,12.0,0.,12.0
1979-07-18 10:16:15.030 ,6,1,0.,12.0,0.,12.0,0.,12.0,0.,12.0
1979-07-18 10:16:27.030 ,6,0,0.,12.0,0.,12.0,0.,12.0,0.,12.0
1979-07-18 10:16:39.030 ,6,0,0.,12.0,0.,12.0,0.,12.0,0.,12.0
1979-07-18 10:16:51.030 ,7,1,0.,12.0,0.,12.0,0.,12.0,0.,12.0
1979-07-18 10:17:03.030 ,7,1,0.,12.0,0.,12.0,0.,12.0,0.,12.0
1979-07-18 10:17:15.030 ,7,0,0.,12.0,0.,12.0,0.,12.0,0.,12.0
1979-07-18 10:17:27.030 ,7,0,0.,12.0,0.,12.0,0.,12.0,0.,12.0